Location: Newark
(48.1500°N, 13.1167°E)
Time: 16:57:51
(UTC+00:00)

XW-2D - Pass Details

Date: 08 December 2021
Orbit: 502 x 522 km, 97.5° (Epoch: 17 January)

Event Time Altitude Azimuth Distance (km) Brightness Sun altitude
Rises 17:02:25 0° 197° (SSW) 2,618 ? -17.2°
Reaches altitude 10° 17:04:50 10° 213° (SSW) 1,741 ? -17.6°
Maximum altitude 17:07:51 23° 266° (W) 1,149 ? -18.1°
Drops below altitude 10° 17:10:54 10° 320° (NW) 1,763 ? -18.6°
Sets 17:13:21 0° 335° (NNW) 2,660 ? -19.0°
